EW1233 Weather Reports


time (UTC)temp
F
wind
direction
speed
knots
gust
knots
rain 1hr
in
rain 24hr
in
rain mn
in
humidity
%
barometer
mb
20260504081608 47 5 0.0 7.0 0.00 0.00 0.00 72 999.2
20260504050107 56 219 11.3 15.6 0.00 0.00 0.00 61 997.8
20260504044544 56 223 8.7 15.6 0.00 0.00 0.00 61 998.1
20260504043106 56 224 8.7 16.5 0.00 0.00 0.00 60 998.3
20260504041528 56 208 9.6 15.6 0.00 0.00 0.00 59 998.7
20260504040107 55 223 8.7 12.2 0.00 0.00 0.00 60 998.8
20260504034535 56 223 5.2 8.7 0.00 0.00 0.00 60 999.0
20260504033113 57 223 7.0 12.2 0.00 0.00 0.00 58 999.1
20260504031515 57 221 7.0 10.4 0.00 0.00 0.00 57 999.4
20260504030056 57 215 7.8 11.3 0.00 0.00 0.00 56 999.6
20260504024517 57 214 7.0 10.4 0.00 0.00 0.00 55 999.7
20260504023051 57 221 7.0 11.3 0.00 0.00 0.00 57 999.8
20260504021502 57 216 7.0 9.6 0.00 0.00 0.00 55 999.7
20260504020040 58 219 6.1 8.7 0.00 0.00 0.00 53 999.9
20260504014531 60 219 5.2 8.7 0.00 0.00 0.00 51 1000.2
20260504013106 61 222 4.3 7.0 0.00 0.00 0.00 49 1000.4
20260504011520 63 221 5.2 9.6 0.00 0.00 0.00 46 1000.5
20260504010107 65 216 5.2 10.4 0.00 0.00 0.00 43 1000.9
20260504004557 67 217 7.0 14.8 0.00 0.00 0.00 39 1001.2
20260504003056 68 230 7.8 13.9 0.00 0.00 0.00 35 1001.6
20260504001611 69 232 6.1 14.8 0.00 0.00 0.00 34 1001.8
20260504000050 69 236 7.0 18.2 0.00 0.00 0.00 34 1002.2
20260503234548 69 235 8.7 17.4 0.00 0.00 0.00 33 1002.7
20260503233047 70 251 8.7 15.6 0.00 0.00 0.00 32 1002.9
20260503231545 71 239 7.8 13.0 0.00 0.00 0.00 33 1003.1
20260503230043 71 250 10.4 16.5 0.00 0.00 0.00 31 1003.3
20260503224542 71 229 10.4 16.5 0.00 0.00 0.00 32 1003.5
20260503223042 71 232 7.0 12.2 0.00 0.00 0.00 31 1003.9
20260503221542 71 275 6.1 15.6 0.00 0.00 0.00 29 1004.1
20260503220044 71 277 5.2 13.0 0.00 0.00 0.00 32 1004.4
20260503214532 71 254 9.6 13.9 0.00 0.00 0.00 31 1004.7
20260503213037 70 250 3.5 13.9 0.00 0.00 0.00 29 1005.1
20260503211528 71 248 6.1 12.2 0.00 0.00 0.00 29 1005.5
20260503210026 71 257 6.1 12.2 0.00 0.00 0.00 30 1005.7
20260503204526 71 297 4.3 13.0 0.00 0.00 0.00 28 1006.0
20260503203022 70 300 4.3 11.3 0.00 0.00 0.00 28 1006.3
20260503201527 70 279 4.3 10.4 0.00 0.00 0.00 27 1006.7
20260503200016 69 240 5.2 12.2 0.00 0.00 0.00 28 1007.1
20260503194511 69 325 3.5 13.0 0.00 0.00 0.00 30 1007.3
20260503193008 69 223 6.1 12.2 0.00 0.00 0.00 30 1007.5
20260503191506 68 299 2.6 7.8 0.00 0.00 0.00 30 1007.8
20260503190024 68 263 5.2 12.2 0.00 0.00 0.00 31 1008.1
20260503184525 67 252 6.1 12.2 0.00 0.00 0.00 32 1008.4
20260503183024 67 303 4.3 14.8 0.00 0.00 0.00 34 1008.9
20260503181525 67 310 4.3 12.2 0.00 0.00 0.00 32 1009.1
20260503180009 66 240 3.5 10.4 0.00 0.00 0.00 37 1009.3
20260503174506 65 225 3.5 10.4 0.00 0.00 0.00 35 1009.7
20260503173015 66 292 6.1 13.9 0.00 0.00 0.00 37 1009.9
20260503171504 66 285 4.3 8.7 0.00 0.00 0.00 38 1010.1